Regional Weather Roundup
Issued by NWS Binghamton, NY

Home | Current Version | Previous Version | Text Only | Print | Product List | Glossary On
Versions: 1 2 3 4 5 6 7 8 9 10 11 12 13 14 15 16 17 18 19 20 21 22 23 24 25 26 27 28 29 30 31 32 33 34 35 36 37 38 39 40 41 42 43 44 45 46 47 48 49 50
000
ASUS41 KBGM 281810
RWRBGM
RWRBGM
BINGHAMTON REGIONAL WEATHER ROUNDUP
NATIONAL WEATHER SERVICE BINGHAMTON NY
100 PM EST WED JAN 28 2015

Note: "fair" indicates few or no clouds below 12,000 feet with no
significant weather and/or obstructions to visibility.

* = Station(s) that does not report precipitation, such as rain,
snow, etc, also no thunder or fog.

!NYZ009-015>018-022>025-036-037-044>046-055>057-062-281900
...CENTRAL NEW YORK...

CITY           SKY/WX    TMP DP  RH WIND       PRES   REMARKS
BINGHAMTON     SUNNY     19   1  45 NW15G23   30.09S WCI   5
CORTLAND       FAIR      21   5  49 W8        30.17F WCI  12
DANSVILLE      SUNNY     21   8  57 NW8       30.26F WCI  11
ELMIRA         SUNNY     27   2  34 VRB6G22   30.19F WCI  20
ITHACA         SUNNY     20   7  57 N14       30.19S WCI   7
HAMILTON       CLEAR     19   1  45 N9        30.14  WCI   9
MONTICELLO     SUNNY     21   7  53 NW17G24   30.03F WCI   7
NORWICH        SUNNY     21   0  39 N14       30.14S WCI   8
ONEONTA        SUNNY     18  -4  38 NW6       30.05S WCI   9
PENN YAN       SUNNY     23   6  48 NW10G18   30.21F WCI  12
ROME           SUNNY     17   0  47 W8        30.21F WCI   7
SIDNEY         SUNNY     27   5  39 NW8       30.13R WCI  18
SYRACUSE       MIX PCPN  21   5  50 NW13      30.22F WCI   9
$$

!PAZ038>040-043-044-047-048-072-281900
...NORTHEAST PENNSYLVANIA...

CITY           SKY/WX    TMP DP  RH WIND       PRES   REMARKS
HAZLETON       SUNNY     25   3  39 W13G18    30.10S WCI  13
SCRANTON       MIX PCPN  25   5  42 NW15      30.12F WCI  13
TOWANDA*       SUNNY     27   1  33 N13       30.20S WCI  16
$$
&&
KEY
WCI = WIND CHILL INDEX
VSB = VISIBILITY
HX  = HEAT INDEX
$$


USA.gov is the U.S. government's official web portal to all federal, state and local government web resources and services.